Overview Statistics Trail Chart Weather Telemetry Raw packets
 

This is the latest recevied weather packets stored in our database for station/object IU3OVK-13. If no packets are shown the sender has not sent any weather packets the latest 10 day(s).

<< 10 11 12 13 14 15 16 >>
Time Temp. Humidity Pressure Rain* Wind** Luminosity Snow
1788416324 29.44° C 99% 1013.9 hPa - - - -
1788415704 29.44° C 99% 1013.9 hPa - - - -
1788415082 17.22° C 99% 1012.6 hPa - - - -
1788414461 16.11° C 99% 1012.7 hPa - - - -
1788413841 17.78° C 99% 1012.7 hPa - - - -
1788413221 17.78° C 99% 1012.5 hPa - - - -
1788412601 17.78° C 99% 1012.3 hPa - - - -
1788411981 17.22° C 99% 1012.1 hPa - - - -
1788411360 17.22° C 99% 1011.9 hPa - - - -
1788410740 16.11° C 99% 1012.1 hPa - - - -
1788410120 16.11° C 99% 1012.1 hPa - - - -
1788409500 16.67° C 99% 1012.2 hPa - - - -
1788408261 17.22° C 99% 1011.8 hPa - - - -
1788407639 16.67° C 99% 1011.8 hPa - - - -
1788407019 16.67° C 99% 1012.1 hPa - - - -
1788406399 17.22° C 99% 1012.3 hPa - - - -
1788405779 17.78° C 99% 1012 hPa - - - -
1788405159 17.22° C 99% 1012.2 hPa - - - -
1788404538 17.22° C 99% 1012.2 hPa - - - -
1788403918 17.78° C 99% 1012 hPa - - - -
1788403298 17.78° C 99% 1011.9 hPa - - - -
1788402678 17.22° C 99% 1012.1 hPa - - - -
1788402058 18.33° C 99% 1011.9 hPa - - - -
1788401437 17.78° C 99% 1011.9 hPa - - - -
1788400817 17.78° C 99% 1011.9 hPa - - - -

* Rain since midnight (hover to see other rain measurements)
** Current wind speed in m/s (hover to see current wind gust speed)